TimeMST,TemperatureF,Dew PointF,Humidity,Sea Level PressureIn,VisibilityMPH,Wind Direction,Wind SpeedMPH,Gust SpeedMPH,PrecipitationIn,Events,Conditions,WindDirDegrees,DateUTC
12:53 AM,28.9,24.1,82,30.06,10.0,North,10.4,-,N/A,,Overcast,10,2013-02-25 07:53:00
1:17 AM,28.4,24.8,86,29.98,10.0,North,15.0,-,N/A,,Overcast,360,2013-02-25 08:17:00
1:53 AM,28.9,25.0,85,30.01,10.0,North,17.3,-,N/A,,Overcast,350,2013-02-25 08:53:00
2:15 AM,28.4,24.8,86,29.96,10.0,North,11.5,-,N/A,,Overcast,350,2013-02-25 09:15:00
2:53 AM,30.0,25.0,82,30.03,10.0,North,10.4,-,N/A,,Overcast,10,2013-02-25 09:53:00
3:53 AM,30.0,25.0,82,30.04,10.0,NNE,12.7,-,N/A,,Overcast,20,2013-02-25 10:53:00
4:53 AM,30.0,25.0,82,30.03,10.0,North,16.1,-,N/A,,Overcast,360,2013-02-25 11:53:00
5:34 AM,30.2,24.8,80,29.96,10.0,North,20.7,-,N/A,,Overcast,360,2013-02-25 12:34:00
5:53 AM,30.0,24.1,79,30.02,10.0,North,18.4,25.3,N/A,,Overcast,360,2013-02-25 12:53:00
6:01 AM,30.2,24.8,80,29.98,10.0,North,17.3,26.5,N/A,,Overcast,360,2013-02-25 13:01:00
6:53 AM,30.0,24.1,79,30.03,10.0,North,17.3,23.0,N/A,,Overcast,360,2013-02-25 13:53:00
7:53 AM,30.0,21.9,72,30.07,10.0,North,20.7,29.9,N/A,,Overcast,10,2013-02-25 14:53:00
8:53 AM,30.0,21.9,72,30.06,10.0,North,20.7,26.5,N/A,,Overcast,360,2013-02-25 15:53:00
9:53 AM,32.0,21.9,66,30.05,10.0,North,19.6,-,N/A,,Overcast,360,2013-02-25 16:53:00
10:53 AM,33.1,21.0,61,30.04,10.0,North,20.7,27.6,N/A,,Overcast,10,2013-02-25 17:53:00
11:40 AM,35.6,21.2,56,29.97,10.0,North,20.7,-,N/A,,Overcast,360,2013-02-25 18:40:00
11:53 AM,37.0,21.9,54,30.01,10.0,NNE,16.1,-,N/A,,Mostly Cloudy,20,2013-02-25 18:53:00
12:53 PM,39.0,21.0,49,29.97,10.0,North,15.0,24.2,N/A,,Partly Cloudy,360,2013-02-25 19:53:00
1:53 PM,39.9,21.0,47,29.95,10.0,North,16.1,25.3,N/A,,Partly Cloudy,350,2013-02-25 20:53:00
2:53 PM,41.0,19.9,43,29.93,10.0,NNE,13.8,23.0,N/A,,Clear,20,2013-02-25 21:53:00
3:53 PM,39.9,21.0,47,29.93,10.0,North,16.1,21.9,N/A,,Clear,10,2013-02-25 22:53:00
4:53 PM,37.0,21.0,52,29.93,10.0,North,12.7,-,N/A,,Clear,360,2013-02-25 23:53:00
5:53 PM,32.0,21.0,64,29.94,10.0,NNE,5.8,-,N/A,,Clear,30,2013-02-26 00:53:00
6:53 PM,27.0,19.9,75,29.94,10.0,Calm,Calm,-,N/A,,Clear,0,2013-02-26 01:53:00
7:53 PM,21.0,17.1,85,29.96,10.0,WSW,3.5,-,N/A,,Clear,250,2013-02-26 02:53:00
8:53 PM,21.0,16.0,81,29.96,10.0,Calm,Calm,-,N/A,,Clear,0,2013-02-26 03:53:00
9:53 PM,17.1,14.0,88,29.97,10.0,SSW,4.6,-,N/A,,Clear,210,2013-02-26 04:53:00
10:53 PM,14.0,10.9,88,29.96,10.0,SSW,5.8,-,N/A,,Clear,210,2013-02-26 05:53:00
11:53 PM,12.0,10.0,92,29.95,10.0,SSW,8.1,-,N/A,,Clear,200,2013-02-26 06:53:00